{"data":{"norad_id":67598,"epoch":"2026-05-25T03:53:53.894112Z","epoch_age_seconds":60878,"freshness":"FRESH","line1":"1 67598U 26018K   26145.16242933  .00014367  00000+0  44636-3 0  9996","line2":"2 67598  97.2846 210.2875 0000995 100.6832 259.4523 15.33454680 19055","mean_motion":15.3345468,"eccentricity":9.95e-5,"inclination_deg":97.2846,"raan_deg":210.2875,"arg_perigee_deg":100.6832,"mean_anomaly_deg":259.4523,"bstar":0.00044636,"rev_number":1905,"period_min":93.905611869795,"perigee_km":464.83343044841,"apogee_km":466.19531707178,"semimajor_km":6843.6513737601,"source":"CELESTRAK","updated_at":"2026-05-25T13:38:21.620983Z"}}